Location: Unspecified
(43.4354°N, 0.0000°E)
Time: 05:39:15
(UTC+00:00)

A-11 Canister half - Pass Details

Date: 22 June 2019
Orbit: 1514 x 1685 km, 47.2° (Epoch: 22 July)

Event Time Altitude Azimuth Distance (km) Brightness Sun altitude
Rises 13:31:36 0° 275° (W) 4,862 11.9 62.8°
Reaches altitude 10° 13:34:48 10° 278° (W) 3,853 11.5 62.4°
Maximum altitude 13:44:36 71° 2° (N) 1,657 10.1 60.9°
Drops below altitude 10° 13:54:02 10° 86° (E) 3,720 10.9 59.5°
Sets 13:57:04 0° 89° (E) 4,686 11.3 59.0°
